weather.gov     
National Weather Service

Terminal Aerodrome Forecast
NWS Homepage
This page is being discontinued on March 12, 2014.
The same data is available at this site. Please update your bookmarks.
Thank you, and we apologize for the inconvenience.
Please send an email to SR-SRH.Webmaster@noaa.gov with any concerns.


Current Version
Previous Version:    01  02  03  04  05  06  07  08  09  10  11  12  13  14  15  16  17  18  19  20  21  22  23  24  25  26  27  28  29  30  
   31  32  33  34  35  36  37  38  39  40  41  42  43  44  45  46  47  48  49  50  51  52  53  
[Printable]
745
FTUS41 KBUF 231700
TAFIAG
TAF
KIAG 231735Z 2318/2418 18008KT P6SM -RA VCSH BKN015 BKN040
     FM231900 17009KT P6SM VCSH OVC050
     FM232100 16008KT P6SM OVC090
     FM240200 15011KT P6SM OVC100 WS020/18040KT
     FM240600 16013KT P6SM -RA OVC040 WS020/18045KT
     FM241000 17018G24KT 6SM -RA OVC035 WS020/18050KT
     FM241400 20020G38KT P6SM VCSH BKN030=


U.S. Dept. of Commerce
NOAA National Weather Service
1325 East West Highway
Silver Spring, MD 20910
E-mail: w-nws.webmaster@noaa.gov
Page last modified: May 16, 2007
NATIONAL WEATHER SERVICE: for Safety, for Work, for Fun - FOR LIFE